<?xml version="1.0" encoding="UTF-8" standalone="no" ?>
<gpx xmlns="http://www.topografix.com/GPX/1/1" xmlns:xsi="http://www.w3.org/2001/XMLSchema-instance" xsi:schemaLocation="http://www.topografix.com/GPX/1/1 http://www.topografix.com/GPX/1/1/gpx.xsd" version="1.1" creator="VisuGPX - https://www.visugpx.com">
  <metadata>
    <name>Mézilhac - col de l\'Escrinet</name>
    <desc><![CDATA[Avec SPdV le 2/6/2013. A faire avec plusieurs véhicules pour faire la navette. Paysages superbes de la montagne ardéchoise. Très venté ce jour.]]></desc>
  </metadata>
  <trk>
    <name><![CDATA[Mézilhac]]></name>
    <cmt><![CDATA[SPdV avec les 2 Jean-Marie, Nicole C., Jean et Lydia, Madé, Didier L., Michel C., Jeanne C., Jocelyne ST]]></cmt>
    <trkseg>
      <trkpt lat="44.80798" lon="4.34639">
        <ele>1119</ele>
        <time>2013-06-02T07:39:48Z</time>
      </trkpt>
      <trkpt lat="44.80788" lon="4.34784">
        <ele>1120</ele>
        <time>2013-06-02T07:39:48Z</time>
      </trkpt>
      <trkpt lat="44.80819" lon="4.34905">
        <ele>1124</ele>
        <time>2013-06-02T07:39:48Z</time>
      </trkpt>
      <trkpt lat="44.80832" lon="4.35033">
        <ele>1129</ele>
        <time>2013-06-02T07:39:48Z</time>
      </trkpt>
      <trkpt lat="44.80795" lon="4.35153">
        <ele>1134</ele>
        <time>2013-06-02T07:39:48Z</time>
      </trkpt>
      <trkpt lat="44.80757" lon="4.35278">
        <ele>1145</ele>
        <time>2013-06-02T07:39:48Z</time>
      </trkpt>
      <trkpt lat="44.80673" lon="4.35282">
        <ele>1148</ele>
        <time>2013-06-02T07:39:48Z</time>
      </trkpt>
      <trkpt lat="44.80584" lon="4.35311">
        <ele>1152</ele>
        <time>2013-06-02T07:39:48Z</time>
      </trkpt>
      <trkpt lat="44.80501" lon="4.35358">
        <ele>1159</ele>
        <time>2013-06-02T07:39:48Z</time>
      </trkpt>
      <trkpt lat="44.80418" lon="4.35434">
        <ele>1166</ele>
        <time>2013-06-02T07:39:48Z</time>
      </trkpt>
      <trkpt lat="44.80372" lon="4.35551">
        <ele>1167</ele>
        <time>2013-06-02T07:39:48Z</time>
      </trkpt>
      <trkpt lat="44.80308" lon="4.35651">
        <ele>1168</ele>
        <time>2013-06-02T07:39:48Z</time>
      </trkpt>
      <trkpt lat="44.80226" lon="4.35734">
        <ele>1169</ele>
        <time>2013-06-02T07:39:48Z</time>
      </trkpt>
      <trkpt lat="44.80147" lon="4.3582">
        <ele>1173</ele>
        <time>2013-06-02T07:39:48Z</time>
      </trkpt>
      <trkpt lat="44.80069" lon="4.35899">
        <ele>1175</ele>
        <time>2013-06-02T07:39:48Z</time>
      </trkpt>
      <trkpt lat="44.79995" lon="4.35977">
        <ele>1176</ele>
        <time>2013-06-02T07:39:48Z</time>
      </trkpt>
      <trkpt lat="44.79925" lon="4.36011">
        <ele>1177</ele>
        <time>2013-06-02T07:39:48Z</time>
      </trkpt>
      <trkpt lat="44.7983" lon="4.36">
        <ele>1181</ele>
        <time>2013-06-02T07:39:48Z</time>
      </trkpt>
      <trkpt lat="44.79776" lon="4.35893">
        <ele>1177</ele>
        <time>2013-06-02T07:39:48Z</time>
      </trkpt>
      <trkpt lat="44.7969" lon="4.35837">
        <ele>1173</ele>
        <time>2013-06-02T07:39:48Z</time>
      </trkpt>
      <trkpt lat="44.79601" lon="4.35829">
        <ele>1167</ele>
        <time>2013-06-02T07:39:48Z</time>
      </trkpt>
      <trkpt lat="44.79512" lon="4.35856">
        <ele>1164</ele>
        <time>2013-06-02T07:39:48Z</time>
      </trkpt>
      <trkpt lat="44.79419" lon="4.35882">
        <ele>1169</ele>
        <time>2013-06-02T07:39:48Z</time>
      </trkpt>
      <trkpt lat="44.79353" lon="4.35972">
        <ele>1175</ele>
        <time>2013-06-02T07:39:48Z</time>
      </trkpt>
      <trkpt lat="44.79301" lon="4.36084">
        <ele>1179</ele>
        <time>2013-06-02T07:39:48Z</time>
      </trkpt>
      <trkpt lat="44.79246" lon="4.36188">
        <ele>1187</ele>
        <time>2013-06-02T07:39:48Z</time>
      </trkpt>
      <trkpt lat="44.79168" lon="4.3624">
        <ele>1187</ele>
        <time>2013-06-02T07:39:48Z</time>
      </trkpt>
      <trkpt lat="44.79103" lon="4.3616">
        <ele>1213</ele>
        <time>2013-06-02T07:39:48Z</time>
      </trkpt>
      <trkpt lat="44.79036" lon="4.3623">
        <ele>1208</ele>
        <time>2013-06-02T07:39:48Z</time>
      </trkpt>
      <trkpt lat="44.79" lon="4.36308">
        <ele>1198</ele>
        <time>2013-06-02T07:39:48Z</time>
      </trkpt>
      <trkpt lat="44.78967" lon="4.36427">
        <ele>1207</ele>
        <time>2013-06-02T07:39:48Z</time>
      </trkpt>
      <trkpt lat="44.78928" lon="4.36537">
        <ele>1203</ele>
        <time>2013-06-02T07:39:48Z</time>
      </trkpt>
      <trkpt lat="44.78876" lon="4.366">
        <ele>1206</ele>
        <time>2013-06-02T07:39:48Z</time>
      </trkpt>
      <trkpt lat="44.78794" lon="4.36574">
        <ele>1225</ele>
        <time>2013-06-02T07:39:48Z</time>
      </trkpt>
      <trkpt lat="44.78732" lon="4.36496">
        <ele>1247</ele>
        <time>2013-06-02T07:39:48Z</time>
      </trkpt>
      <trkpt lat="44.78669" lon="4.36541">
        <ele>1239</ele>
        <time>2013-06-02T07:39:48Z</time>
      </trkpt>
      <trkpt lat="44.78605" lon="4.36623">
        <ele>1247</ele>
        <time>2013-06-02T07:39:48Z</time>
      </trkpt>
      <trkpt lat="44.78555" lon="4.36729">
        <ele>1259</ele>
        <time>2013-06-02T07:39:48Z</time>
      </trkpt>
      <trkpt lat="44.78527" lon="4.36852">
        <ele>1254</ele>
        <time>2013-06-02T07:39:48Z</time>
      </trkpt>
      <trkpt lat="44.78484" lon="4.36967">
        <ele>1263</ele>
        <time>2013-06-02T07:39:48Z</time>
      </trkpt>
      <trkpt lat="44.78408" lon="4.37024">
        <ele>1269</ele>
        <time>2013-06-02T07:39:48Z</time>
      </trkpt>
      <trkpt lat="44.7833" lon="4.37074">
        <ele>1276</ele>
        <time>2013-06-02T07:39:48Z</time>
      </trkpt>
      <trkpt lat="44.78277" lon="4.37163">
        <ele>1276</ele>
        <time>2013-06-02T07:39:48Z</time>
      </trkpt>
      <trkpt lat="44.78233" lon="4.37277">
        <ele>1282</ele>
        <time>2013-06-02T07:39:48Z</time>
      </trkpt>
      <trkpt lat="44.78227" lon="4.37403">
        <ele>1282</ele>
        <time>2013-06-02T07:39:48Z</time>
      </trkpt>
      <trkpt lat="44.78243" lon="4.37462">
        <ele>1286</ele>
        <time>2013-06-02T07:39:48Z</time>
      </trkpt>
      <trkpt lat="44.78256" lon="4.37586">
        <ele>1281</ele>
        <time>2013-06-02T07:39:48Z</time>
      </trkpt>
      <trkpt lat="44.78192" lon="4.37675">
        <ele>1287</ele>
        <time>2013-06-02T07:39:48Z</time>
      </trkpt>
      <trkpt lat="44.78154" lon="4.37803">
        <ele>1289</ele>
        <time>2013-06-02T07:39:48Z</time>
      </trkpt>
      <trkpt lat="44.78112" lon="4.37928">
        <ele>1282</ele>
        <time>2013-06-02T07:39:48Z</time>
      </trkpt>
      <trkpt lat="44.78062" lon="4.38041">
        <ele>1275</ele>
        <time>2013-06-02T07:39:48Z</time>
      </trkpt>
      <trkpt lat="44.77997" lon="4.38136">
        <ele>1268</ele>
        <time>2013-06-02T07:39:48Z</time>
      </trkpt>
      <trkpt lat="44.77929" lon="4.38218">
        <ele>1271</ele>
        <time>2013-06-02T07:39:48Z</time>
      </trkpt>
      <trkpt lat="44.77849" lon="4.38272">
        <ele>1267</ele>
        <time>2013-06-02T07:39:48Z</time>
      </trkpt>
      <trkpt lat="44.77775" lon="4.38335">
        <ele>1261</ele>
        <time>2013-06-02T07:39:48Z</time>
      </trkpt>
      <trkpt lat="44.77712" lon="4.38416">
        <ele>1249</ele>
        <time>2013-06-02T07:39:48Z</time>
      </trkpt>
      <trkpt lat="44.77627" lon="4.38447">
        <ele>1249</ele>
        <time>2013-06-02T07:39:48Z</time>
      </trkpt>
      <trkpt lat="44.77544" lon="4.38462">
        <ele>1239</ele>
        <time>2013-06-02T07:39:48Z</time>
      </trkpt>
      <trkpt lat="44.77456" lon="4.3848">
        <ele>1228</ele>
        <time>2013-06-02T07:39:48Z</time>
      </trkpt>
      <trkpt lat="44.77373" lon="4.38526">
        <ele>1229</ele>
        <time>2013-06-02T07:39:48Z</time>
      </trkpt>
      <trkpt lat="44.77289" lon="4.38541">
        <ele>1220</ele>
        <time>2013-06-02T07:39:48Z</time>
      </trkpt>
      <trkpt lat="44.77201" lon="4.38548">
        <ele>1215</ele>
        <time>2013-06-02T07:39:48Z</time>
      </trkpt>
      <trkpt lat="44.77153" lon="4.38527">
        <ele>1208</ele>
        <time>2013-06-02T07:39:48Z</time>
      </trkpt>
      <trkpt lat="44.77153" lon="4.38536">
        <ele>1209</ele>
        <time>2013-06-02T07:39:48Z</time>
      </trkpt>
      <trkpt lat="44.7714" lon="4.3852">
        <ele>1207</ele>
        <time>2013-06-02T07:39:48Z</time>
      </trkpt>
      <trkpt lat="44.77127" lon="4.38516">
        <ele>1207</ele>
        <time>2013-06-02T07:39:48Z</time>
      </trkpt>
      <trkpt lat="44.77046" lon="4.38526">
        <ele>1201</ele>
        <time>2013-06-02T07:39:48Z</time>
      </trkpt>
      <trkpt lat="44.76974" lon="4.38581">
        <ele>1197</ele>
        <time>2013-06-02T07:39:48Z</time>
      </trkpt>
      <trkpt lat="44.77001" lon="4.38701">
        <ele>1204</ele>
        <time>2013-06-02T07:39:48Z</time>
      </trkpt>
      <trkpt lat="44.77019" lon="4.38808">
        <ele>1196</ele>
        <time>2013-06-02T07:39:48Z</time>
      </trkpt>
      <trkpt lat="44.7705" lon="4.38911">
        <ele>1193</ele>
        <time>2013-06-02T07:39:48Z</time>
      </trkpt>
      <trkpt lat="44.77077" lon="4.39023">
        <ele>1187</ele>
        <time>2013-06-02T07:39:48Z</time>
      </trkpt>
      <trkpt lat="44.7705" lon="4.39137">
        <ele>1181</ele>
        <time>2013-06-02T07:39:48Z</time>
      </trkpt>
      <trkpt lat="44.77094" lon="4.39185">
        <ele>1191</ele>
        <time>2013-06-02T07:39:48Z</time>
      </trkpt>
      <trkpt lat="44.77167" lon="4.39252">
        <ele>1186</ele>
        <time>2013-06-02T07:39:48Z</time>
      </trkpt>
      <trkpt lat="44.77242" lon="4.39302">
        <ele>1183</ele>
        <time>2013-06-02T07:39:48Z</time>
      </trkpt>
      <trkpt lat="44.77311" lon="4.39351">
        <ele>1181</ele>
        <time>2013-06-02T07:39:48Z</time>
      </trkpt>
      <trkpt lat="44.77368" lon="4.39447">
        <ele>1179</ele>
        <time>2013-06-02T07:39:48Z</time>
      </trkpt>
      <trkpt lat="44.77411" lon="4.39555">
        <ele>1175</ele>
        <time>2013-06-02T07:39:48Z</time>
      </trkpt>
      <trkpt lat="44.77372" lon="4.39668">
        <ele>1178</ele>
        <time>2013-06-02T07:39:48Z</time>
      </trkpt>
      <trkpt lat="44.77351" lon="4.3976">
        <ele>1183</ele>
        <time>2013-06-02T07:39:48Z</time>
      </trkpt>
      <trkpt lat="44.77309" lon="4.39867">
        <ele>1172</ele>
        <time>2013-06-02T07:39:48Z</time>
      </trkpt>
      <trkpt lat="44.77252" lon="4.39966">
        <ele>1178</ele>
        <time>2013-06-02T07:39:48Z</time>
      </trkpt>
      <trkpt lat="44.77193" lon="4.40045">
        <ele>1166</ele>
        <time>2013-06-02T07:39:48Z</time>
      </trkpt>
      <trkpt lat="44.77118" lon="4.40092">
        <ele>1160</ele>
        <time>2013-06-02T07:39:48Z</time>
      </trkpt>
      <trkpt lat="44.77039" lon="4.40137">
        <ele>1143</ele>
        <time>2013-06-02T07:39:48Z</time>
      </trkpt>
      <trkpt lat="44.76963" lon="4.40209">
        <ele>1140</ele>
        <time>2013-06-02T07:39:48Z</time>
      </trkpt>
      <trkpt lat="44.76897" lon="4.40306">
        <ele>1131</ele>
        <time>2013-06-02T07:39:48Z</time>
      </trkpt>
      <trkpt lat="44.76835" lon="4.40401">
        <ele>1131</ele>
        <time>2013-06-02T07:39:48Z</time>
      </trkpt>
      <trkpt lat="44.76766" lon="4.40484">
        <ele>1120</ele>
        <time>2013-06-02T07:39:48Z</time>
      </trkpt>
      <trkpt lat="44.76764" lon="4.40568">
        <ele>1121</ele>
        <time>2013-06-02T07:39:48Z</time>
      </trkpt>
      <trkpt lat="44.76766" lon="4.40696">
        <ele>1117</ele>
        <time>2013-06-02T07:39:48Z</time>
      </trkpt>
      <trkpt lat="44.76742" lon="4.4082">
        <ele>1098</ele>
        <time>2013-06-02T07:39:48Z</time>
      </trkpt>
      <trkpt lat="44.7673" lon="4.40946">
        <ele>1095</ele>
        <time>2013-06-02T07:39:48Z</time>
      </trkpt>
      <trkpt lat="44.76655" lon="4.41015">
        <ele>1080</ele>
        <time>2013-06-02T07:39:48Z</time>
      </trkpt>
      <trkpt lat="44.76589" lon="4.41091">
        <ele>1075</ele>
        <time>2013-06-02T07:39:48Z</time>
      </trkpt>
      <trkpt lat="44.76516" lon="4.41109">
        <ele>1067</ele>
        <time>2013-06-02T07:39:48Z</time>
      </trkpt>
      <trkpt lat="44.76445" lon="4.41035">
        <ele>1060</ele>
        <time>2013-06-02T07:39:48Z</time>
      </trkpt>
      <trkpt lat="44.76373" lon="4.40967">
        <ele>1044</ele>
        <time>2013-06-02T07:39:48Z</time>
      </trkpt>
      <trkpt lat="44.76285" lon="4.40981">
        <ele>1038</ele>
        <time>2013-06-02T07:39:48Z</time>
      </trkpt>
      <trkpt lat="44.76247" lon="4.41093">
        <ele>1037</ele>
        <time>2013-06-02T07:39:48Z</time>
      </trkpt>
      <trkpt lat="44.76279" lon="4.41221">
        <ele>1036</ele>
        <time>2013-06-02T07:39:48Z</time>
      </trkpt>
      <trkpt lat="44.76323" lon="4.41343">
        <ele>1027</ele>
        <time>2013-06-02T07:39:48Z</time>
      </trkpt>
      <trkpt lat="44.76324" lon="4.41473">
        <ele>1018</ele>
        <time>2013-06-02T07:39:48Z</time>
      </trkpt>
      <trkpt lat="44.76272" lon="4.41576">
        <ele>1012</ele>
        <time>2013-06-02T07:39:48Z</time>
      </trkpt>
      <trkpt lat="44.76256" lon="4.41683">
        <ele>1006</ele>
        <time>2013-06-02T07:39:48Z</time>
      </trkpt>
      <trkpt lat="44.76191" lon="4.41783">
        <ele>995</ele>
        <time>2013-06-02T07:39:48Z</time>
      </trkpt>
      <trkpt lat="44.76148" lon="4.41893">
        <ele>987</ele>
        <time>2013-06-02T07:39:48Z</time>
      </trkpt>
      <trkpt lat="44.76056" lon="4.42035">
        <ele>980</ele>
        <time>2013-06-02T07:39:48Z</time>
      </trkpt>
      <trkpt lat="44.75982" lon="4.42101">
        <ele>976</ele>
        <time>2013-06-02T07:39:48Z</time>
      </trkpt>
      <trkpt lat="44.75899" lon="4.42143">
        <ele>968</ele>
        <time>2013-06-02T07:39:48Z</time>
      </trkpt>
      <trkpt lat="44.75827" lon="4.42211">
        <ele>960</ele>
        <time>2013-06-02T07:39:48Z</time>
      </trkpt>
      <trkpt lat="44.75788" lon="4.42317">
        <ele>968</ele>
        <time>2013-06-02T07:39:48Z</time>
      </trkpt>
      <trkpt lat="44.75707" lon="4.42348">
        <ele>963</ele>
        <time>2013-06-02T07:39:48Z</time>
      </trkpt>
      <trkpt lat="44.75689" lon="4.42473">
        <ele>959</ele>
        <time>2013-06-02T07:39:48Z</time>
      </trkpt>
      <trkpt lat="44.75669" lon="4.42599">
        <ele>951</ele>
        <time>2013-06-02T07:39:48Z</time>
      </trkpt>
      <trkpt lat="44.75692" lon="4.42699">
        <ele>950</ele>
        <time>2013-06-02T07:39:48Z</time>
      </trkpt>
      <trkpt lat="44.75662" lon="4.42825">
        <ele>931</ele>
        <time>2013-06-02T07:39:48Z</time>
      </trkpt>
      <trkpt lat="44.75654" lon="4.42947">
        <ele>926</ele>
        <time>2013-06-02T07:39:48Z</time>
      </trkpt>
      <trkpt lat="44.7563" lon="4.43062">
        <ele>922</ele>
        <time>2013-06-02T07:39:48Z</time>
      </trkpt>
      <trkpt lat="44.7563" lon="4.43202">
        <ele>916</ele>
        <time>2013-06-02T07:39:48Z</time>
      </trkpt>
      <trkpt lat="44.75622" lon="4.43339">
        <ele>912</ele>
        <time>2013-06-02T07:39:48Z</time>
      </trkpt>
      <trkpt lat="44.75607" lon="4.43464">
        <ele>911</ele>
        <time>2013-06-02T07:39:48Z</time>
      </trkpt>
      <trkpt lat="44.75586" lon="4.43555">
        <ele>914</ele>
        <time>2013-06-02T07:39:48Z</time>
      </trkpt>
      <trkpt lat="44.75548" lon="4.43627">
        <ele>903</ele>
        <time>2013-06-02T07:39:48Z</time>
      </trkpt>
      <trkpt lat="44.75513" lon="4.43747">
        <ele>901</ele>
        <time>2013-06-02T07:39:48Z</time>
      </trkpt>
      <trkpt lat="44.75586" lon="4.43886">
        <ele>897</ele>
        <time>2013-06-02T07:39:48Z</time>
      </trkpt>
      <trkpt lat="44.75614" lon="4.43994">
        <ele>895</ele>
        <time>2013-06-02T07:39:48Z</time>
      </trkpt>
      <trkpt lat="44.75539" lon="4.44048">
        <ele>890</ele>
        <time>2013-06-02T07:39:48Z</time>
      </trkpt>
      <trkpt lat="44.75459" lon="4.44095">
        <ele>888</ele>
        <time>2013-06-02T07:39:48Z</time>
      </trkpt>
      <trkpt lat="44.75467" lon="4.44222">
        <ele>881</ele>
        <time>2013-06-02T07:39:48Z</time>
      </trkpt>
      <trkpt lat="44.7549" lon="4.44352">
        <ele>873</ele>
        <time>2013-06-02T07:39:48Z</time>
      </trkpt>
      <trkpt lat="44.75513" lon="4.44471">
        <ele>874</ele>
        <time>2013-06-02T07:39:48Z</time>
      </trkpt>
      <trkpt lat="44.75502" lon="4.44603">
        <ele>880</ele>
        <time>2013-06-02T07:39:48Z</time>
      </trkpt>
      <trkpt lat="44.75493" lon="4.44743">
        <ele>876</ele>
        <time>2013-06-02T07:39:48Z</time>
      </trkpt>
      <trkpt lat="44.75456" lon="4.4487">
        <ele>879</ele>
        <time>2013-06-02T07:39:48Z</time>
      </trkpt>
      <trkpt lat="44.75406" lon="4.44965">
        <ele>881</ele>
        <time>2013-06-02T07:39:48Z</time>
      </trkpt>
      <trkpt lat="44.75327" lon="4.45015">
        <ele>881</ele>
        <time>2013-06-02T07:39:48Z</time>
      </trkpt>
      <trkpt lat="44.75257" lon="4.45092">
        <ele>887</ele>
        <time>2013-06-02T07:39:48Z</time>
      </trkpt>
      <trkpt lat="44.75209" lon="4.45188">
        <ele>897</ele>
        <time>2013-06-02T07:39:48Z</time>
      </trkpt>
      <trkpt lat="44.7514" lon="4.45268">
        <ele>903</ele>
        <time>2013-06-02T07:39:48Z</time>
      </trkpt>
      <trkpt lat="44.75062" lon="4.45328">
        <ele>902</ele>
        <time>2013-06-02T07:39:48Z</time>
      </trkpt>
      <trkpt lat="44.7498" lon="4.45372">
        <ele>908</ele>
        <time>2013-06-02T07:39:48Z</time>
      </trkpt>
      <trkpt lat="44.74924" lon="4.45407">
        <ele>911</ele>
        <time>2013-06-02T07:39:48Z</time>
      </trkpt>
      <trkpt lat="44.74874" lon="4.45447">
        <ele>909</ele>
        <time>2013-06-02T07:39:48Z</time>
      </trkpt>
      <trkpt lat="44.74808" lon="4.45527">
        <ele>905</ele>
        <time>2013-06-02T07:39:48Z</time>
      </trkpt>
      <trkpt lat="44.74738" lon="4.45596">
        <ele>898</ele>
        <time>2013-06-02T07:39:48Z</time>
      </trkpt>
      <trkpt lat="44.74654" lon="4.45616">
        <ele>895</ele>
        <time>2013-06-02T07:39:48Z</time>
      </trkpt>
      <trkpt lat="44.74571" lon="4.45597">
        <ele>890</ele>
        <time>2013-06-02T07:39:48Z</time>
      </trkpt>
      <trkpt lat="44.74503" lon="4.45604">
        <ele>884</ele>
        <time>2013-06-02T07:39:48Z</time>
      </trkpt>
      <trkpt lat="44.74449" lon="4.45705">
        <ele>870</ele>
        <time>2013-06-02T07:39:48Z</time>
      </trkpt>
      <trkpt lat="44.74371" lon="4.45765">
        <ele>863</ele>
        <time>2013-06-02T07:39:48Z</time>
      </trkpt>
      <trkpt lat="44.74294" lon="4.45818">
        <ele>857</ele>
        <time>2013-06-02T07:39:48Z</time>
      </trkpt>
      <trkpt lat="44.74214" lon="4.45882">
        <ele>852</ele>
        <time>2013-06-02T07:39:48Z</time>
      </trkpt>
      <trkpt lat="44.74189" lon="4.45879">
        <ele>850</ele>
        <time>2013-06-02T07:39:48Z</time>
      </trkpt>
      <trkpt lat="44.74108" lon="4.45881">
        <ele>840</ele>
        <time>2013-06-02T07:39:48Z</time>
      </trkpt>
      <trkpt lat="44.74037" lon="4.45947">
        <ele>836</ele>
        <time>2013-06-02T07:39:48Z</time>
      </trkpt>
      <trkpt lat="44.73975" lon="4.46031">
        <ele>828</ele>
        <time>2013-06-02T07:39:48Z</time>
      </trkpt>
      <trkpt lat="44.73904" lon="4.46098">
        <ele>826</ele>
        <time>2013-06-02T07:39:48Z</time>
      </trkpt>
      <trkpt lat="44.73835" lon="4.46069">
        <ele>824</ele>
        <time>2013-06-02T07:39:48Z</time>
      </trkpt>
      <trkpt lat="44.73766" lon="4.46092">
        <ele>830</ele>
        <time>2013-06-02T07:39:48Z</time>
      </trkpt>
      <trkpt lat="44.73688" lon="4.46149">
        <ele>834</ele>
        <time>2013-06-02T07:39:48Z</time>
      </trkpt>
      <trkpt lat="44.73603" lon="4.46157">
        <ele>834</ele>
        <time>2013-06-02T07:39:48Z</time>
      </trkpt>
      <trkpt lat="44.73517" lon="4.46173">
        <ele>843</ele>
        <time>2013-06-02T07:39:48Z</time>
      </trkpt>
      <trkpt lat="44.73465" lon="4.46253">
        <ele>857</ele>
        <time>2013-06-02T07:39:48Z</time>
      </trkpt>
      <trkpt lat="44.73402" lon="4.46335">
        <ele>863</ele>
        <time>2013-06-02T07:39:48Z</time>
      </trkpt>
      <trkpt lat="44.73332" lon="4.46403">
        <ele>867</ele>
        <time>2013-06-02T07:39:48Z</time>
      </trkpt>
      <trkpt lat="44.73245" lon="4.46405">
        <ele>869</ele>
        <time>2013-06-02T07:39:48Z</time>
      </trkpt>
      <trkpt lat="44.73168" lon="4.46351">
        <ele>866</ele>
        <time>2013-06-02T07:39:48Z</time>
      </trkpt>
      <trkpt lat="44.7308" lon="4.46331">
        <ele>870</ele>
        <time>2013-06-02T07:39:48Z</time>
      </trkpt>
      <trkpt lat="44.72997" lon="4.46323">
        <ele>876</ele>
        <time>2013-06-02T07:39:48Z</time>
      </trkpt>
      <trkpt lat="44.72929" lon="4.46256">
        <ele>875</ele>
        <time>2013-06-02T07:39:48Z</time>
      </trkpt>
      <trkpt lat="44.72861" lon="4.46174">
        <ele>875</ele>
        <time>2013-06-02T07:39:48Z</time>
      </trkpt>
      <trkpt lat="44.72779" lon="4.46145">
        <ele>878</ele>
        <time>2013-06-02T07:39:48Z</time>
      </trkpt>
      <trkpt lat="44.72694" lon="4.46145">
        <ele>882</ele>
        <time>2013-06-02T07:39:48Z</time>
      </trkpt>
      <trkpt lat="44.7268" lon="4.46267">
        <ele>900</ele>
        <time>2013-06-02T07:39:48Z</time>
      </trkpt>
      <trkpt lat="44.72662" lon="4.46394">
        <ele>895</ele>
        <time>2013-06-02T07:39:48Z</time>
      </trkpt>
      <trkpt lat="44.72634" lon="4.46523">
        <ele>907</ele>
        <time>2013-06-02T07:39:48Z</time>
      </trkpt>
      <trkpt lat="44.72613" lon="4.46655">
        <ele>912</ele>
        <time>2013-06-02T07:39:48Z</time>
      </trkpt>
      <trkpt lat="44.726" lon="4.46787">
        <ele>921</ele>
        <time>2013-06-02T07:39:48Z</time>
      </trkpt>
      <trkpt lat="44.72618" lon="4.46911">
        <ele>922</ele>
        <time>2013-06-02T07:39:48Z</time>
      </trkpt>
      <trkpt lat="44.72662" lon="4.47014">
        <ele>921</ele>
        <time>2013-06-02T07:39:48Z</time>
      </trkpt>
      <trkpt lat="44.72668" lon="4.47142">
        <ele>928</ele>
        <time>2013-06-02T07:39:48Z</time>
      </trkpt>
      <trkpt lat="44.72658" lon="4.47269">
        <ele>920</ele>
        <time>2013-06-02T07:39:48Z</time>
      </trkpt>
      <trkpt lat="44.7267" lon="4.47397">
        <ele>930</ele>
        <time>2013-06-02T07:39:48Z</time>
      </trkpt>
      <trkpt lat="44.72699" lon="4.47516">
        <ele>924</ele>
        <time>2013-06-02T07:39:48Z</time>
      </trkpt>
      <trkpt lat="44.72736" lon="4.47633">
        <ele>917</ele>
        <time>2013-06-02T07:39:48Z</time>
      </trkpt>
      <trkpt lat="44.72733" lon="4.47718">
        <ele>912</ele>
        <time>2013-06-02T07:39:48Z</time>
      </trkpt>
      <trkpt lat="44.72731" lon="4.47816">
        <ele>911</ele>
        <time>2013-06-02T07:39:48Z</time>
      </trkpt>
      <trkpt lat="44.727" lon="4.47937">
        <ele>908</ele>
        <time>2013-06-02T07:39:48Z</time>
      </trkpt>
      <trkpt lat="44.72664" lon="4.48033">
        <ele>893</ele>
        <time>2013-06-02T07:39:48Z</time>
      </trkpt>
      <trkpt lat="44.72626" lon="4.48148">
        <ele>897</ele>
        <time>2013-06-02T07:39:48Z</time>
      </trkpt>
      <trkpt lat="44.72561" lon="4.48218">
        <ele>890</ele>
        <time>2013-06-02T07:39:48Z</time>
      </trkpt>
      <trkpt lat="44.72483" lon="4.48236">
        <ele>882</ele>
        <time>2013-06-02T07:39:48Z</time>
      </trkpt>
      <trkpt lat="44.72407" lon="4.48272">
        <ele>883</ele>
        <time>2013-06-02T07:39:48Z</time>
      </trkpt>
      <trkpt lat="44.72332" lon="4.48315">
        <ele>878</ele>
        <time>2013-06-02T07:39:48Z</time>
      </trkpt>
      <trkpt lat="44.72263" lon="4.48377">
        <ele>885</ele>
        <time>2013-06-02T07:39:48Z</time>
      </trkpt>
      <trkpt lat="44.72189" lon="4.4836">
        <ele>872</ele>
        <time>2013-06-02T07:39:48Z</time>
      </trkpt>
      <trkpt lat="44.72109" lon="4.48386">
        <ele>862</ele>
        <time>2013-06-02T07:39:48Z</time>
      </trkpt>
      <trkpt lat="44.72046" lon="4.48471">
        <ele>857</ele>
        <time>2013-06-02T07:39:48Z</time>
      </trkpt>
      <trkpt lat="44.71985" lon="4.48552">
        <ele>845</ele>
        <time>2013-06-02T07:39:48Z</time>
      </trkpt>
      <trkpt lat="44.71923" lon="4.48628">
        <ele>849</ele>
        <time>2013-06-02T07:39:48Z</time>
      </trkpt>
      <trkpt lat="44.71905" lon="4.48751">
        <ele>836</ele>
        <time>2013-06-02T07:39:48Z</time>
      </trkpt>
      <trkpt lat="44.71852" lon="4.48842">
        <ele>828</ele>
        <time>2013-06-02T07:39:48Z</time>
      </trkpt>
      <trkpt lat="44.71831" lon="4.48954">
        <ele>812</ele>
        <time>2013-06-02T07:39:48Z</time>
      </trkpt>
      <trkpt lat="44.718" lon="4.49072">
        <ele>805</ele>
        <time>2013-06-02T07:39:48Z</time>
      </trkpt>
      <trkpt lat="44.71809" lon="4.4919">
        <ele>796</ele>
        <time>2013-06-02T07:39:48Z</time>
      </trkpt>
      <trkpt lat="44.71844" lon="4.49286">
        <ele>790</ele>
        <time>2013-06-02T07:39:48Z</time>
      </trkpt>
      <trkpt lat="44.71765" lon="4.49286">
        <ele>786</ele>
        <time>2013-06-02T07:39:48Z</time>
      </trkpt>
      <trkpt lat="44.71727" lon="4.49185">
        <ele>778</ele>
        <time>2013-06-02T07:39:48Z</time>
      </trkpt>
      <trkpt lat="44.71722" lon="4.49167">
        <ele>778</ele>
        <time>2013-06-02T07:39:48Z</time>
      </trkpt>
      <trkpt lat="44.71721" lon="4.49164">
        <ele>778</ele>
        <time>2013-06-02T07:39:48Z</time>
      </trkpt>
      <trkpt lat="44.71721" lon="4.49162">
        <ele>778</ele>
        <time>2013-06-02T07:39:48Z</time>
      </trkpt>
      <trkpt lat="44.71721" lon="4.4916">
        <ele>778</ele>
        <time>2013-06-02T07:39:48Z</time>
      </trkpt>
      <trkpt lat="44.71721" lon="4.49157">
        <ele>778</ele>
        <time>2013-06-02T07:39:48Z</time>
      </trkpt>
      <trkpt lat="44.71721" lon="4.49155">
        <ele>778</ele>
        <time>2013-06-02T07:39:48Z</time>
      </trkpt>
      <trkpt lat="44.71721" lon="4.49153">
        <ele>778</ele>
        <time>2013-06-02T07:39:48Z</time>
      </trkpt>
      <trkpt lat="44.7172" lon="4.49151">
        <ele>778</ele>
        <time>2013-06-02T07:39:48Z</time>
      </trkpt>
      <trkpt lat="44.71719" lon="4.49149">
        <ele>778</ele>
        <time>2013-06-02T07:39:48Z</time>
      </trkpt>
      <trkpt lat="44.7172" lon="4.49146">
        <ele>778</ele>
        <time>2013-06-02T07:39:48Z</time>
      </trkpt>
      <trkpt lat="44.7172" lon="4.49144">
        <ele>778</ele>
        <time>2013-06-02T07:39:48Z</time>
      </trkpt>
      <trkpt lat="44.71719" lon="4.49142">
        <ele>778</ele>
        <time>2013-06-02T07:39:48Z</time>
      </trkpt>
      <trkpt lat="44.71718" lon="4.4914">
        <ele>778</ele>
        <time>2013-06-02T07:39:48Z</time>
      </trkpt>
      <trkpt lat="44.71717" lon="4.49138">
        <ele>777</ele>
        <time>2013-06-02T07:39:48Z</time>
      </trkpt>
      <trkpt lat="44.71717" lon="4.49136">
        <ele>777</ele>
        <time>2013-06-02T07:39:48Z</time>
      </trkpt>
      <trkpt lat="44.71715" lon="4.49135">
        <ele>777</ele>
        <time>2013-06-02T07:39:48Z</time>
      </trkpt>
      <trkpt lat="44.71715" lon="4.49133">
        <ele>777</ele>
        <time>2013-06-02T07:39:48Z</time>
      </trkpt>
      <trkpt lat="44.71715" lon="4.49131">
        <ele>777</ele>
        <time>2013-06-02T07:39:48Z</time>
      </trkpt>
      <trkpt lat="44.71714" lon="4.49128">
        <ele>777</ele>
        <time>2013-06-02T07:39:48Z</time>
      </trkpt>
      <trkpt lat="44.71713" lon="4.49126">
        <ele>777</ele>
        <time>2013-06-02T07:39:48Z</time>
      </trkpt>
      <trkpt lat="44.71714" lon="4.49123">
        <ele>777</ele>
        <time>2013-06-02T07:39:48Z</time>
      </trkpt>
      <trkpt lat="44.71714" lon="4.49121">
        <ele>777</ele>
        <time>2013-06-02T07:39:48Z</time>
      </trkpt>
      <trkpt lat="44.71714" lon="4.49121">
        <ele>777</ele>
        <time>2013-06-02T07:39:48Z</time>
      </trkpt>
    </trkseg>
  </trk>
</gpx>